owner,sensor,date,latitude,longitude,vertical_datum,sea_water_practical_salinity,qcFlag 
LUMCON,ioos:station:LUMCON:102:1,2017-07-01T00:00:00Z,29.1870,-90.6093,2.19,12.8,1111122 
LUMCON,ioos:station:LUMCON:102:1,2017-07-01T00:15:00Z,29.1870,-90.6093,2.19,12.83,1111122 
LUMCON,ioos:station:LUMCON:102:1,2017-07-01T00:30:00Z,29.1870,-90.6093,2.22,12.85,1111122 
LUMCON,ioos:station:LUMCON:102:1,2017-07-01T00:45:00Z,29.1870,-90.6093,2.21,12.87,1111122 
LUMCON,ioos:station:LUMCON:102:1,2017-07-01T01:00:00Z,29.1870,-90.6093,2.21,12.88,1111122 
LUMCON,ioos:station:LUMCON:102:1,2017-07-01T01:15:00Z,29.1870,-90.6093,2.21,12.89,1111122 
LUMCON,ioos:station:LUMCON:102:1,2017-07-01T01:30:00Z,29.1870,-90.6093,2.2,12.89,1111122 
LUMCON,ioos:station:LUMCON:102:1,2017-07-01T01:45:00Z,29.1870,-90.6093,2.2,12.9,1111122 
LUMCON,ioos:station:LUMCON:102:1,2017-07-01T02:00:00Z,29.1870,-90.6093,2.21,12.91,1111122 
LUMCON,ioos:station:LUMCON:102:1,2017-07-01T02:15:00Z,29.1870,-90.6093,2.19,12.92,1111122 
LUMCON,ioos:station:LUMCON:102:1,2017-07-01T02:30:00Z,29.1870,-90.6093,2.18,12.96,1111122 
LUMCON,ioos:station:LUMCON:102:1,2017-07-01T02:45:00Z,29.1870,-90.6093,2.17,12.96,1111122 
LUMCON,ioos:station:LUMCON:102:1,2017-07-01T03:00:00Z,29.1870,-90.6093,2.18,12.97,1111122 
LUMCON,ioos:station:LUMCON:102:1,2017-07-01T03:15:00Z,29.1870,-90.6093,2.16,13.0,1111122 
LUMCON,ioos:station:LUMCON:102:1,2017-07-01T03:30:00Z,29.1870,-90.6093,2.17,13.0,1111122 
LUMCON,ioos:station:LUMCON:102:1,2017-07-01T03:45:00Z,29.1870,-90.6093,2.16,13.05,1111122 
LUMCON,ioos:station:LUMCON:102:1,2017-07-01T04:00:00Z,29.1870,-90.6093,2.16,13.06,1111122 
LUMCON,ioos:station:LUMCON:102:1,2017-07-01T04:15:00Z,29.1870,-90.6093,2.17,13.02,1111122 
LUMCON,ioos:station:LUMCON:102:1,2017-07-01T04:30:00Z,29.1870,-90.6093,2.17,13.0,1111122 
LUMCON,ioos:station:LUMCON:102:1,2017-07-01T04:45:00Z,29.1870,-90.6093,2.19,12.99,1111122 
LUMCON,ioos:station:LUMCON:102:1,2017-07-01T05:00:00Z,29.1870,-90.6093,2.18,13.0,1111122 
LUMCON,ioos:station:LUMCON:102:1,2017-07-01T05:15:00Z,29.1870,-90.6093,2.2,12.99,1111122 
LUMCON,ioos:station:LUMCON:102:1,2017-07-01T05:30:00Z,29.1870,-90.6093,2.19,12.22,1111122 
LUMCON,ioos:station:LUMCON:102:1,2017-07-01T05:45:00Z,29.1870,-90.6093,2.19,11.67,1111122 
LUMCON,ioos:station:LUMCON:102:1,2017-07-01T06:00:00Z,29.1870,-90.6093,2.19,11.58,1111122 
LUMCON,ioos:station:LUMCON:102:1,2017-07-01T06:15:00Z,29.1870,-90.6093,2.19,11.11,1111122 
LUMCON,ioos:station:LUMCON:102:1,2017-07-01T06:30:00Z,29.1870,-90.6093,2.19,12.27,1111122 
LUMCON,ioos:station:LUMCON:102:1,2017-07-01T06:45:00Z,29.1870,-90.6093,2.2,11.21,1111122 
LUMCON,ioos:station:LUMCON:102:1,2017-07-01T07:00:00Z,29.1870,-90.6093,2.2,11.34,1111122 
LUMCON,ioos:station:LUMCON:102:1,2017-07-01T07:15:00Z,29.1870,-90.6093,2.2,11.26,1111122 
LUMCON,ioos:station:LUMCON:102:1,2017-07-01T07:30:00Z,29.1870,-90.6093,2.2,11.25,1111122 
LUMCON,ioos:station:LUMCON:102:1,2017-07-01T07:45:00Z,29.1870,-90.6093,2.21,11.37,1111122 
LUMCON,ioos:station:LUMCON:102:1,2017-07-01T08:00:00Z,29.1870,-90.6093,2.21,11.36,1111122 
LUMCON,ioos:station:LUMCON:102:1,2017-07-01T08:15:00Z,29.1870,-90.6093,2.21,11.33,1111122 
LUMCON,ioos:station:LUMCON:102:1,2017-07-01T08:30:00Z,29.1870,-90.6093,2.22,11.35,1111122 
LUMCON,ioos:station:LUMCON:102:1,2017-07-01T08:45:00Z,29.1870,-90.6093,2.21,11.34,1111122 
LUMCON,ioos:station:LUMCON:102:1,2017-07-01T09:00:00Z,29.1870,-90.6093,2.21,11.43,1111122 
LUMCON,ioos:station:LUMCON:102:1,2017-07-01T09:15:00Z,29.1870,-90.6093,2.22,11.5,1111122 
LUMCON,ioos:station:LUMCON:102:1,2017-07-01T09:30:00Z,29.1870,-90.6093,2.23,11.5,1111122 
LUMCON,ioos:station:LUMCON:102:1,2017-07-01T09:45:00Z,29.1870,-90.6093,2.24,11.59,1111122 
LUMCON,ioos:station:LUMCON:102:1,2017-07-01T10:00:00Z,29.1870,-90.6093,2.26,11.62,1111122 
LUMCON,ioos:station:LUMCON:102:1,2017-07-01T10:15:00Z,29.1870,-90.6093,2.27,11.62,1111122 
LUMCON,ioos:station:LUMCON:102:1,2017-07-01T10:30:00Z,29.1870,-90.6093,2.27,11.92,1111122 
LUMCON,ioos:station:LUMCON:102:1,2017-07-01T10:45:00Z,29.1870,-90.6093,2.27,11.99,1111122 
LUMCON,ioos:station:LUMCON:102:1,2017-07-01T11:00:00Z,29.1870,-90.6093,2.27,11.73,1111122 
LUMCON,ioos:station:LUMCON:102:1,2017-07-01T11:15:00Z,29.1870,-90.6093,2.28,12.06,1111122 
LUMCON,ioos:station:LUMCON:102:1,2017-07-01T11:30:00Z,29.1870,-90.6093,2.28,12.17,1111122 
LUMCON,ioos:station:LUMCON:102:1,2017-07-01T11:45:00Z,29.1870,-90.6093,2.27,12.2,1111122 
LUMCON,ioos:station:LUMCON:102:1,2017-07-01T12:00:00Z,29.1870,-90.6093,2.26,12.21,1111122 
LUMCON,ioos:station:LUMCON:102:1,2017-07-01T12:15:00Z,29.1870,-90.6093,2.27,12.24,1111122 
LUMCON,ioos:station:LUMCON:102:1,2017-07-01T12:30:00Z,29.1870,-90.6093,2.27,12.27,1111122 
LUMCON,ioos:station:LUMCON:102:1,2017-07-01T12:45:00Z,29.1870,-90.6093,2.28,12.28,1111122 
LUMCON,ioos:station:LUMCON:102:1,2017-07-01T13:00:00Z,29.1870,-90.6093,2.26,12.28,1111122 
LUMCON,ioos:station:LUMCON:102:1,2017-07-01T13:15:00Z,29.1870,-90.6093,2.27,12.28,1111122 
LUMCON,ioos:station:LUMCON:102:1,2017-07-01T13:30:00Z,29.1870,-90.6093,2.27,12.29,1111122 
LUMCON,ioos:station:LUMCON:102:1,2017-07-01T13:45:00Z,29.1870,-90.6093,2.28,12.29,1111122 
LUMCON,ioos:station:LUMCON:102:1,2017-07-01T14:00:00Z,29.1870,-90.6093,2.26,12.31,1111122 
LUMCON,ioos:station:LUMCON:102:1,2017-07-01T14:15:00Z,29.1870,-90.6093,2.27,12.33,1111122 
LUMCON,ioos:station:LUMCON:102:1,2017-07-01T14:30:00Z,29.1870,-90.6093,2.26,12.36,1111122 
LUMCON,ioos:station:LUMCON:102:1,2017-07-01T14:45:00Z,29.1870,-90.6093,2.27,12.4,1111122 
LUMCON,ioos:station:LUMCON:102:1,2017-07-01T15:00:00Z,29.1870,-90.6093,2.27,12.44,1111122 
LUMCON,ioos:station:LUMCON:102:1,2017-07-01T15:15:00Z,29.1870,-90.6093,2.28,12.46,1111122 
LUMCON,ioos:station:LUMCON:102:1,2017-07-01T15:30:00Z,29.1870,-90.6093,2.27,12.54,1111122 
LUMCON,ioos:station:LUMCON:102:1,2017-07-01T15:45:00Z,29.1870,-90.6093,2.27,12.6,1111122 
LUMCON,ioos:station:LUMCON:102:1,2017-07-01T16:00:00Z,29.1870,-90.6093,2.26,12.64,1111122 
LUMCON,ioos:station:LUMCON:102:1,2017-07-01T16:15:00Z,29.1870,-90.6093,2.27,12.66,1111122 
LUMCON,ioos:station:LUMCON:102:1,2017-07-01T16:30:00Z,29.1870,-90.6093,2.25,12.65,1111122 
LUMCON,ioos:station:LUMCON:102:1,2017-07-01T16:45:00Z,29.1870,-90.6093,2.23,12.66,1111122 
LUMCON,ioos:station:LUMCON:102:1,2017-07-01T17:00:00Z,29.1870,-90.6093,2.23,12.68,1111122 
LUMCON,ioos:station:LUMCON:102:1,2017-07-01T17:15:00Z,29.1870,-90.6093,2.22,12.72,1111122 
LUMCON,ioos:station:LUMCON:102:1,2017-07-01T17:30:00Z,29.1870,-90.6093,2.2,12.72,1111122 
LUMCON,ioos:station:LUMCON:102:1,2017-07-01T17:45:00Z,29.1870,-90.6093,2.21,12.79,1111122 
LUMCON,ioos:station:LUMCON:102:1,2017-07-01T18:00:00Z,29.1870,-90.6093,2.2,12.81,1111122 
LUMCON,ioos:station:LUMCON:102:1,2017-07-01T18:15:00Z,29.1870,-90.6093,2.2,12.83,1111122 
LUMCON,ioos:station:LUMCON:102:1,2017-07-01T18:30:00Z,29.1870,-90.6093,2.2,12.84,1111122 
LUMCON,ioos:station:LUMCON:102:1,2017-07-01T18:45:00Z,29.1870,-90.6093,2.2,12.86,1111122 
LUMCON,ioos:station:LUMCON:102:1,2017-07-01T19:00:00Z,29.1870,-90.6093,2.15,12.84,1111122 
LUMCON,ioos:station:LUMCON:102:1,2017-07-01T19:15:00Z,29.1870,-90.6093,2.17,12.83,1111122 
LUMCON,ioos:station:LUMCON:102:1,2017-07-01T19:30:00Z,29.1870,-90.6093,2.15,12.85,1111122 
LUMCON,ioos:station:LUMCON:102:1,2017-07-01T19:45:00Z,29.1870,-90.6093,2.12,12.82,1111122 
LUMCON,ioos:station:LUMCON:102:1,2017-07-01T20:00:00Z,29.1870,-90.6093,2.11,12.73,1111122 
LUMCON,ioos:station:LUMCON:102:1,2017-07-01T20:15:00Z,29.1870,-90.6093,2.1,12.63,1111122 
LUMCON,ioos:station:LUMCON:102:1,2017-07-01T20:30:00Z,29.1870,-90.6093,2.09,12.47,1111122 
LUMCON,ioos:station:LUMCON:102:1,2017-07-01T20:45:00Z,29.1870,-90.6093,2.1,12.28,1111122 
LUMCON,ioos:station:LUMCON:102:1,2017-07-01T21:00:00Z,29.1870,-90.6093,2.09,12.11,1111122 
LUMCON,ioos:station:LUMCON:102:1,2017-07-01T21:15:00Z,29.1870,-90.6093,2.09,12.0,1111122 
LUMCON,ioos:station:LUMCON:102:1,2017-07-01T21:30:00Z,29.1870,-90.6093,2.08,11.94,1111122 
LUMCON,ioos:station:LUMCON:102:1,2017-07-01T21:45:00Z,29.1870,-90.6093,2.09,11.87,1111122 
LUMCON,ioos:station:LUMCON:102:1,2017-07-01T22:00:00Z,29.1870,-90.6093,2.07,11.82,1111122 
LUMCON,ioos:station:LUMCON:102:1,2017-07-01T22:15:00Z,29.1870,-90.6093,2.08,11.65,1111122 
LUMCON,ioos:station:LUMCON:102:1,2017-07-01T22:30:00Z,29.1870,-90.6093,2.07,11.71,1111122 
LUMCON,ioos:station:LUMCON:102:1,2017-07-01T22:45:00Z,29.1870,-90.6093,2.05,11.65,1111122 
LUMCON,ioos:station:LUMCON:102:1,2017-07-01T23:00:00Z,29.1870,-90.6093,2.06,11.64,1111122 
LUMCON,ioos:station:LUMCON:102:1,2017-07-01T23:15:00Z,29.1870,-90.6093,2.08,11.62,1111122 
LUMCON,ioos:station:LUMCON:102:1,2017-07-01T23:30:00Z,29.1870,-90.6093,2.09,11.61,1111122 
LUMCON,ioos:station:LUMCON:102:1,2017-07-01T23:45:00Z,29.1870,-90.6093,2.08,11.62,1111122 
LUMCON,ioos:station:LUMCON:102:1,2017-07-02T00:00:00Z,29.1870,-90.6093,2.08,11.63,1111122 
LUMCON,ioos:station:LUMCON:102:1,2017-07-02T00:15:00Z,29.1870,-90.6093,2.08,11.64,1111122 
LUMCON,ioos:station:LUMCON:102:1,2017-07-02T00:30:00Z,29.1870,-90.6093,2.08,11.66,1111122 
LUMCON,ioos:station:LUMCON:102:1,2017-07-02T00:45:00Z,29.1870,-90.6093,2.07,11.68,1111122 
LUMCON,ioos:station:LUMCON:102:1,2017-07-02T01:00:00Z,29.1870,-90.6093,2.08,11.67,1111122 
LUMCON,ioos:station:LUMCON:102:1,2017-07-02T01:15:00Z,29.1870,-90.6093,2.07,11.69,1111122 
LUMCON,ioos:station:LUMCON:102:1,2017-07-02T01:30:00Z,29.1870,-90.6093,2.09,11.71,1111122 
LUMCON,ioos:station:LUMCON:102:1,2017-07-02T01:45:00Z,29.1870,-90.6093,2.09,11.71,1111122 
LUMCON,ioos:station:LUMCON:102:1,2017-07-02T02:00:00Z,29.1870,-90.6093,2.1,11.75,1111122 
LUMCON,ioos:station:LUMCON:102:1,2017-07-02T02:15:00Z,29.1870,-90.6093,2.09,11.78,1111122 
LUMCON,ioos:station:LUMCON:102:1,2017-07-02T02:30:00Z,29.1870,-90.6093,2.11,11.83,1111122 
LUMCON,ioos:station:LUMCON:102:1,2017-07-02T02:45:00Z,29.1870,-90.6093,2.11,11.86,1111122 
LUMCON,ioos:station:LUMCON:102:1,2017-07-02T03:00:00Z,29.1870,-90.6093,2.12,11.93,1111122 
LUMCON,ioos:station:LUMCON:102:1,2017-07-02T03:15:00Z,29.1870,-90.6093,2.14,11.95,1111122 
LUMCON,ioos:station:LUMCON:102:1,2017-07-02T03:30:00Z,29.1870,-90.6093,2.14,12.0,1111122 
LUMCON,ioos:station:LUMCON:102:1,2017-07-02T03:45:00Z,29.1870,-90.6093,2.14,12.03,1111122 
LUMCON,ioos:station:LUMCON:102:1,2017-07-02T04:00:00Z,29.1870,-90.6093,2.14,12.04,1111122 
LUMCON,ioos:station:LUMCON:102:1,2017-07-02T04:15:00Z,29.1870,-90.6093,2.15,12.06,1111122 
LUMCON,ioos:station:LUMCON:102:1,2017-07-02T04:30:00Z,29.1870,-90.6093,2.15,12.09,1111122 
LUMCON,ioos:station:LUMCON:102:1,2017-07-02T04:45:00Z,29.1870,-90.6093,2.14,12.11,1111122 
LUMCON,ioos:station:LUMCON:102:1,2017-07-02T05:00:00Z,29.1870,-90.6093,2.13,12.13,1111122 
LUMCON,ioos:station:LUMCON:102:1,2017-07-02T05:15:00Z,29.1870,-90.6093,2.14,12.15,1111122 
LUMCON,ioos:station:LUMCON:102:1,2017-07-02T05:30:00Z,29.1870,-90.6093,2.15,12.2,1111122 
LUMCON,ioos:station:LUMCON:102:1,2017-07-02T05:45:00Z,29.1870,-90.6093,2.14,12.25,1111122 
LUMCON,ioos:station:LUMCON:102:1,2017-07-02T06:00:00Z,29.1870,-90.6093,2.14,12.28,1111122 
LUMCON,ioos:station:LUMCON:102:1,2017-07-02T06:15:00Z,29.1870,-90.6093,2.16,12.31,1111122 
LUMCON,ioos:station:LUMCON:102:1,2017-07-02T06:30:00Z,29.1870,-90.6093,2.17,12.37,1111122 
LUMCON,ioos:station:LUMCON:102:1,2017-07-02T06:45:00Z,29.1870,-90.6093,2.15,12.44,1111122 
LUMCON,ioos:station:LUMCON:102:1,2017-07-02T07:00:00Z,29.1870,-90.6093,2.16,12.48,1111122 
LUMCON,ioos:station:LUMCON:102:1,2017-07-02T07:15:00Z,29.1870,-90.6093,2.15,12.46,1111122 
LUMCON,ioos:station:LUMCON:102:1,2017-07-02T07:30:00Z,29.1870,-90.6093,2.14,12.53,1111122 
LUMCON,ioos:station:LUMCON:102:1,2017-07-02T07:45:00Z,29.1870,-90.6093,2.14,12.54,1111122 
LUMCON,ioos:station:LUMCON:102:1,2017-07-02T08:00:00Z,29.1870,-90.6093,2.16,12.54,1111122 
LUMCON,ioos:station:LUMCON:102:1,2017-07-02T08:15:00Z,29.1870,-90.6093,2.16,12.58,1111122 
LUMCON,ioos:station:LUMCON:102:1,2017-07-02T08:30:00Z,29.1870,-90.6093,2.16,12.63,1111122 
LUMCON,ioos:station:LUMCON:102:1,2017-07-02T08:45:00Z,29.1870,-90.6093,2.15,12.6,1111122 
LUMCON,ioos:station:LUMCON:102:1,2017-07-02T09:00:00Z,29.1870,-90.6093,2.17,12.64,1111122 
LUMCON,ioos:station:LUMCON:102:1,2017-07-02T09:15:00Z,29.1870,-90.6093,2.17,12.7,1111122 
LUMCON,ioos:station:LUMCON:102:1,2017-07-02T09:30:00Z,29.1870,-90.6093,2.17,12.66,1111122 
LUMCON,ioos:station:LUMCON:102:1,2017-07-02T09:45:00Z,29.1870,-90.6093,2.17,12.7,1111122 
LUMCON,ioos:station:LUMCON:102:1,2017-07-02T10:00:00Z,29.1870,-90.6093,2.18,12.69,1111122 
LUMCON,ioos:station:LUMCON:102:1,2017-07-02T10:15:00Z,29.1870,-90.6093,2.19,12.7,1111122 
LUMCON,ioos:station:LUMCON:102:1,2017-07-02T10:30:00Z,29.1870,-90.6093,2.18,12.74,1111122 
LUMCON,ioos:station:LUMCON:102:1,2017-07-02T10:45:00Z,29.1870,-90.6093,2.18,12.58,1111122 
LUMCON,ioos:station:LUMCON:102:1,2017-07-02T11:00:00Z,29.1870,-90.6093,2.18,12.26,1111122 
LUMCON,ioos:station:LUMCON:102:1,2017-07-02T11:15:00Z,29.1870,-90.6093,2.19,12.46,1111122 
LUMCON,ioos:station:LUMCON:102:1,2017-07-02T11:30:00Z,29.1870,-90.6093,2.19,12.45,1111122 
LUMCON,ioos:station:LUMCON:102:1,2017-07-02T11:45:00Z,29.1870,-90.6093,2.22,12.57,1111122 
LUMCON,ioos:station:LUMCON:102:1,2017-07-02T12:00:00Z,29.1870,-90.6093,2.24,12.5,1111122 
LUMCON,ioos:station:LUMCON:102:1,2017-07-02T12:15:00Z,29.1870,-90.6093,2.25,12.55,1111122 
LUMCON,ioos:station:LUMCON:102:1,2017-07-02T12:30:00Z,29.1870,-90.6093,2.26,12.67,1111122 
LUMCON,ioos:station:LUMCON:102:1,2017-07-02T12:45:00Z,29.1870,-90.6093,2.25,12.68,1111122 
LUMCON,ioos:station:LUMCON:102:1,2017-07-02T13:00:00Z,29.1870,-90.6093,2.24,12.79,1111122 
LUMCON,ioos:station:LUMCON:102:1,2017-07-02T13:15:00Z,29.1870,-90.6093,2.25,12.8,1111122 
LUMCON,ioos:station:LUMCON:102:1,2017-07-02T13:30:00Z,29.1870,-90.6093,2.24,12.78,1111122 
LUMCON,ioos:station:LUMCON:102:1,2017-07-02T13:45:00Z,29.1870,-90.6093,2.24,12.68,1111122 
LUMCON,ioos:station:LUMCON:102:1,2017-07-02T14:00:00Z,29.1870,-90.6093,2.24,12.69,1111122 
LUMCON,ioos:station:LUMCON:102:1,2017-07-02T14:15:00Z,29.1870,-90.6093,2.24,12.72,1111122 
LUMCON,ioos:station:LUMCON:102:1,2017-07-02T14:30:00Z,29.1870,-90.6093,2.23,12.54,1111122 
LUMCON,ioos:station:LUMCON:102:1,2017-07-02T14:45:00Z,29.1870,-90.6093,2.23,12.65,1111122 
LUMCON,ioos:station:LUMCON:102:1,2017-07-02T15:00:00Z,29.1870,-90.6093,2.22,12.74,1111122 
LUMCON,ioos:station:LUMCON:102:1,2017-07-02T15:15:00Z,29.1870,-90.6093,2.2,12.77,1111122 
LUMCON,ioos:station:LUMCON:102:1,2017-07-02T15:30:00Z,29.1870,-90.6093,2.21,12.76,1111122 
LUMCON,ioos:station:LUMCON:102:1,2017-07-02T15:45:00Z,29.1870,-90.6093,2.2,12.79,1111122 
LUMCON,ioos:station:LUMCON:102:1,2017-07-02T16:00:00Z,29.1870,-90.6093,2.2,12.75,1111122 
LUMCON,ioos:station:LUMCON:102:1,2017-07-02T16:15:00Z,29.1870,-90.6093,2.17,12.71,1111122 
LUMCON,ioos:station:LUMCON:102:1,2017-07-02T16:30:00Z,29.1870,-90.6093,2.18,12.68,1111122 
LUMCON,ioos:station:LUMCON:102:1,2017-07-02T16:45:00Z,29.1870,-90.6093,2.17,12.66,1111122 
LUMCON,ioos:station:LUMCON:102:1,2017-07-02T17:00:00Z,29.1870,-90.6093,2.16,12.66,1111122 
LUMCON,ioos:station:LUMCON:102:1,2017-07-02T17:15:00Z,29.1870,-90.6093,2.15,12.65,1111122 
LUMCON,ioos:station:LUMCON:102:1,2017-07-02T17:30:00Z,29.1870,-90.6093,2.14,12.65,1111122 
LUMCON,ioos:station:LUMCON:102:1,2017-07-02T17:45:00Z,29.1870,-90.6093,2.13,12.57,1111122 
LUMCON,ioos:station:LUMCON:102:1,2017-07-02T18:00:00Z,29.1870,-90.6093,2.11,12.59,1111122 
LUMCON,ioos:station:LUMCON:102:1,2017-07-02T18:15:00Z,29.1870,-90.6093,2.1,12.54,1111122 
LUMCON,ioos:station:LUMCON:102:1,2017-07-02T18:30:00Z,29.1870,-90.6093,2.08,12.41,1111122 
LUMCON,ioos:station:LUMCON:102:1,2017-07-02T18:45:00Z,29.1870,-90.6093,2.06,12.31,1111122 
LUMCON,ioos:station:LUMCON:102:1,2017-07-02T19:00:00Z,29.1870,-90.6093,2.05,12.22,1111122 
LUMCON,ioos:station:LUMCON:102:1,2017-07-02T19:15:00Z,29.1870,-90.6093,2.05,12.12,1111122 
LUMCON,ioos:station:LUMCON:102:1,2017-07-02T19:30:00Z,29.1870,-90.6093,2.04,11.99,1111122 
LUMCON,ioos:station:LUMCON:102:1,2017-07-02T19:45:00Z,29.1870,-90.6093,2.03,11.94,1111122 
LUMCON,ioos:station:LUMCON:102:1,2017-07-02T20:00:00Z,29.1870,-90.6093,2.02,11.83,1111122 
LUMCON,ioos:station:LUMCON:102:1,2017-07-02T20:15:00Z,29.1870,-90.6093,2.01,11.8,1111122 
LUMCON,ioos:station:LUMCON:102:1,2017-07-02T20:30:00Z,29.1870,-90.6093,2.01,11.78,1111122 
LUMCON,ioos:station:LUMCON:102:1,2017-07-02T20:45:00Z,29.1870,-90.6093,2.0,11.78,1111122 
LUMCON,ioos:station:LUMCON:102:1,2017-07-02T21:00:00Z,29.1870,-90.6093,1.99,11.74,1111122 
LUMCON,ioos:station:LUMCON:102:1,2017-07-02T21:15:00Z,29.1870,-90.6093,1.98,11.64,1111122 
LUMCON,ioos:station:LUMCON:102:1,2017-07-02T21:30:00Z,29.1870,-90.6093,1.97,11.61,1111122 
LUMCON,ioos:station:LUMCON:102:1,2017-07-02T21:45:00Z,29.1870,-90.6093,1.97,11.56,1111122 
LUMCON,ioos:station:LUMCON:102:1,2017-07-02T22:00:00Z,29.1870,-90.6093,1.96,11.59,1111122 
LUMCON,ioos:station:LUMCON:102:1,2017-07-02T22:15:00Z,29.1870,-90.6093,1.96,11.6,1111122 
LUMCON,ioos:station:LUMCON:102:1,2017-07-02T22:30:00Z,29.1870,-90.6093,1.95,11.6,1111122 
LUMCON,ioos:station:LUMCON:102:1,2017-07-02T22:45:00Z,29.1870,-90.6093,1.95,11.57,1111122 
LUMCON,ioos:station:LUMCON:102:1,2017-07-02T23:00:00Z,29.1870,-90.6093,1.95,11.61,1111122 
LUMCON,ioos:station:LUMCON:102:1,2017-07-02T23:15:00Z,29.1870,-90.6093,1.95,11.62,1111122 
LUMCON,ioos:station:LUMCON:102:1,2017-07-02T23:30:00Z,29.1870,-90.6093,1.96,11.61,1111122 
LUMCON,ioos:station:LUMCON:102:1,2017-07-02T23:45:00Z,29.1870,-90.6093,1.97,11.6,1111122 
LUMCON,ioos:station:LUMCON:102:1,2017-07-03T00:00:00Z,29.1870,-90.6093,1.97,11.58,1111122 
LUMCON,ioos:station:LUMCON:102:1,2017-07-03T00:15:00Z,29.1870,-90.6093,1.97,11.56,1111122 
LUMCON,ioos:station:LUMCON:102:1,2017-07-03T00:30:00Z,29.1870,-90.6093,1.97,11.58,1111122 
LUMCON,ioos:station:LUMCON:102:1,2017-07-03T00:45:00Z,29.1870,-90.6093,1.99,11.67,1111122 
LUMCON,ioos:station:LUMCON:102:1,2017-07-03T01:00:00Z,29.1870,-90.6093,1.99,11.68,1111122 
LUMCON,ioos:station:LUMCON:102:1,2017-07-03T01:15:00Z,29.1870,-90.6093,1.99,11.73,1111122 
LUMCON,ioos:station:LUMCON:102:1,2017-07-03T01:30:00Z,29.1870,-90.6093,2.01,11.78,1111122 
LUMCON,ioos:station:LUMCON:102:1,2017-07-03T01:45:00Z,29.1870,-90.6093,2.01,11.73,1111122 
LUMCON,ioos:station:LUMCON:102:1,2017-07-03T02:00:00Z,29.1870,-90.6093,2.03,11.92,1111122 
LUMCON,ioos:station:LUMCON:102:1,2017-07-03T02:15:00Z,29.1870,-90.6093,2.04,11.81,1111122 
LUMCON,ioos:station:LUMCON:102:1,2017-07-03T02:30:00Z,29.1870,-90.6093,2.05,11.67,1111122 
LUMCON,ioos:station:LUMCON:102:1,2017-07-03T02:45:00Z,29.1870,-90.6093,2.06,11.72,1111122 
LUMCON,ioos:station:LUMCON:102:1,2017-07-03T03:00:00Z,29.1870,-90.6093,2.07,11.77,1111122 
LUMCON,ioos:station:LUMCON:102:1,2017-07-03T03:15:00Z,29.1870,-90.6093,2.07,11.85,1111122 
LUMCON,ioos:station:LUMCON:102:1,2017-07-03T03:30:00Z,29.1870,-90.6093,2.08,11.64,1111122 
LUMCON,ioos:station:LUMCON:102:1,2017-07-03T03:45:00Z,29.1870,-90.6093,2.07,11.61,1111122 
LUMCON,ioos:station:LUMCON:102:1,2017-07-03T04:00:00Z,29.1870,-90.6093,2.08,11.64,1111122 
LUMCON,ioos:station:LUMCON:102:1,2017-07-03T04:15:00Z,29.1870,-90.6093,2.09,11.59,1111122 
LUMCON,ioos:station:LUMCON:102:1,2017-07-03T04:30:00Z,29.1870,-90.6093,2.09,11.63,1111122 
LUMCON,ioos:station:LUMCON:102:1,2017-07-03T04:45:00Z,29.1870,-90.6093,2.1,11.54,1111122 
LUMCON,ioos:station:LUMCON:102:1,2017-07-03T05:00:00Z,29.1870,-90.6093,2.1,11.65,1111122 
LUMCON,ioos:station:LUMCON:102:1,2017-07-03T05:15:00Z,29.1870,-90.6093,2.1,11.75,1111122 
LUMCON,ioos:station:LUMCON:102:1,2017-07-03T05:30:00Z,29.1870,-90.6093,2.11,11.72,1111122 
LUMCON,ioos:station:LUMCON:102:1,2017-07-03T05:45:00Z,29.1870,-90.6093,2.11,11.76,1111122 
LUMCON,ioos:station:LUMCON:102:1,2017-07-03T06:00:00Z,29.1870,-90.6093,2.1,11.91,1111122 
LUMCON,ioos:station:LUMCON:102:1,2017-07-03T06:15:00Z,29.1870,-90.6093,2.1,12.12,1111122 
LUMCON,ioos:station:LUMCON:102:1,2017-07-03T06:30:00Z,29.1870,-90.6093,2.12,12.17,1111122 
LUMCON,ioos:station:LUMCON:102:1,2017-07-03T06:45:00Z,29.1870,-90.6093,2.13,12.23,1111122 
LUMCON,ioos:station:LUMCON:102:1,2017-07-03T07:00:00Z,29.1870,-90.6093,2.14,12.36,1111122 
LUMCON,ioos:station:LUMCON:102:1,2017-07-03T07:15:00Z,29.1870,-90.6093,2.15,12.44,1111122 
LUMCON,ioos:station:LUMCON:102:1,2017-07-03T07:30:00Z,29.1870,-90.6093,2.15,12.57,1111122 
LUMCON,ioos:station:LUMCON:102:1,2017-07-03T07:45:00Z,29.1870,-90.6093,2.15,12.74,1111122 
LUMCON,ioos:station:LUMCON:102:1,2017-07-03T08:00:00Z,29.1870,-90.6093,2.16,12.84,1111122 
LUMCON,ioos:station:LUMCON:102:1,2017-07-03T08:15:00Z,29.1870,-90.6093,2.16,12.9,1111122 
LUMCON,ioos:station:LUMCON:102:1,2017-07-03T08:30:00Z,29.1870,-90.6093,2.17,13.0,1111122 
LUMCON,ioos:station:LUMCON:102:1,2017-07-03T08:45:00Z,29.1870,-90.6093,2.19,13.1,1111122 
LUMCON,ioos:station:LUMCON:102:1,2017-07-03T09:00:00Z,29.1870,-90.6093,2.19,13.11,1111122 
LUMCON,ioos:station:LUMCON:102:1,2017-07-03T09:15:00Z,29.1870,-90.6093,2.19,13.13,1111122 
LUMCON,ioos:station:LUMCON:102:1,2017-07-03T09:30:00Z,29.1870,-90.6093,2.19,13.2,1111122 
LUMCON,ioos:station:LUMCON:102:1,2017-07-03T09:45:00Z,29.1870,-90.6093,2.19,13.25,1111122 
LUMCON,ioos:station:LUMCON:102:1,2017-07-03T10:00:00Z,29.1870,-90.6093,2.18,13.31,1111122 
LUMCON,ioos:station:LUMCON:102:1,2017-07-03T10:15:00Z,29.1870,-90.6093,2.2,13.37,1111122 
LUMCON,ioos:station:LUMCON:102:1,2017-07-03T10:30:00Z,29.1870,-90.6093,2.2,13.65,1111122 
LUMCON,ioos:station:LUMCON:102:1,2017-07-03T10:45:00Z,29.1870,-90.6093,2.19,14.12,1111122 
LUMCON,ioos:station:LUMCON:102:1,2017-07-03T11:00:00Z,29.1870,-90.6093,2.19,13.95,1111122 
LUMCON,ioos:station:LUMCON:102:1,2017-07-03T11:15:00Z,29.1870,-90.6093,2.19,13.95,1111122 
LUMCON,ioos:station:LUMCON:102:1,2017-07-03T11:30:00Z,29.1870,-90.6093,2.2,13.81,1111122 
LUMCON,ioos:station:LUMCON:102:1,2017-07-03T11:45:00Z,29.1870,-90.6093,2.19,13.64,1111122 
LUMCON,ioos:station:LUMCON:102:1,2017-07-03T12:00:00Z,29.1870,-90.6093,2.21,13.66,1111122 
LUMCON,ioos:station:LUMCON:102:1,2017-07-03T12:15:00Z,29.1870,-90.6093,2.21,13.57,1111122 
LUMCON,ioos:station:LUMCON:102:1,2017-07-03T12:30:00Z,29.1870,-90.6093,2.2,13.55,1111122 
LUMCON,ioos:station:LUMCON:102:1,2017-07-03T12:45:00Z,29.1870,-90.6093,2.22,13.52,1111122 
LUMCON,ioos:station:LUMCON:102:1,2017-07-03T13:00:00Z,29.1870,-90.6093,2.21,13.52,1111122 
LUMCON,ioos:station:LUMCON:102:1,2017-07-03T13:15:00Z,29.1870,-90.6093,2.22,13.52,1111122 
LUMCON,ioos:station:LUMCON:102:1,2017-07-03T13:30:00Z,29.1870,-90.6093,2.22,13.52,1111122 
LUMCON,ioos:station:LUMCON:102:1,2017-07-03T13:45:00Z,29.1870,-90.6093,2.24,13.51,1111122 
LUMCON,ioos:station:LUMCON:102:1,2017-07-03T14:00:00Z,29.1870,-90.6093,2.23,13.51,1111122 
LUMCON,ioos:station:LUMCON:102:1,2017-07-03T14:15:00Z,29.1870,-90.6093,2.22,13.51,1111122 
LUMCON,ioos:station:LUMCON:102:1,2017-07-03T14:30:00Z,29.1870,-90.6093,2.21,13.52,1111122 
LUMCON,ioos:station:LUMCON:102:1,2017-07-03T14:45:00Z,29.1870,-90.6093,2.2,13.53,1111122 
LUMCON,ioos:station:LUMCON:102:1,2017-07-03T15:00:00Z,29.1870,-90.6093,2.19,13.53,1111122 
LUMCON,ioos:station:LUMCON:102:1,2017-07-03T15:15:00Z,29.1870,-90.6093,2.18,13.53,1111122 
LUMCON,ioos:station:LUMCON:102:1,2017-07-03T15:30:00Z,29.1870,-90.6093,2.19,13.53,1111122 
LUMCON,ioos:station:LUMCON:102:1,2017-07-03T15:45:00Z,29.1870,-90.6093,2.18,13.52,1111122 
LUMCON,ioos:station:LUMCON:102:1,2017-07-03T16:00:00Z,29.1870,-90.6093,2.16,13.51,1111122 
LUMCON,ioos:station:LUMCON:102:1,2017-07-03T16:15:00Z,29.1870,-90.6093,2.14,13.55,1111122 
LUMCON,ioos:station:LUMCON:102:1,2017-07-03T16:30:00Z,29.1870,-90.6093,2.14,13.51,1111122 
LUMCON,ioos:station:LUMCON:102:1,2017-07-03T16:45:00Z,29.1870,-90.6093,2.12,13.48,1111122 
LUMCON,ioos:station:LUMCON:102:1,2017-07-03T17:00:00Z,29.1870,-90.6093,2.11,13.41,1111122 
LUMCON,ioos:station:LUMCON:102:1,2017-07-03T17:15:00Z,29.1870,-90.6093,2.09,13.35,1111122 
LUMCON,ioos:station:LUMCON:102:1,2017-07-03T17:30:00Z,29.1870,-90.6093,2.08,13.26,1111122 